sat.trackr.live / text

‹ back to catalog

STARLINK-2187

NORAD 48562 · 2021-041K

PAYLOAD ACTIVE UNKNOWN

§ Identity

Operator
Country
US
Launch date
2021-05-15
Launch site
AFETR
Launch vehicle
Mass (kg)
RCS (m²)

Purposes: comms

External: N2YO · Heavens-Above · Gunter

§ Orbital elements

Epoch: 2026-05-25T02:42:39.026880Z

Period
93.18 min
Inclination
53.1558°
Eccentricity
0.0007152
Mean motion
15.45374384 rev/d
Perigee alt
425.4 km
Apogee alt
435.1 km
Semi-major
6,808.4 km
B*
1.1269e-3
RAAN
125.8332°
Arg perigee
37.9919°
Mean anomaly
322.1592°
Rev number
27,706

§ Raw data

STARLINK-21871 48562U 21041K   26145.11295170  .00054674  00000+0  11269-2 0  99932 48562  53.1558 125.8332 0007152  37.9919 322.1592 15.45374384277061

JSON: /api/v1/satellites/48562 · /tle

For live sub-satellite position, see the globe view (requires WebGL).

§ Visibility from observer

Set your observer location to see the next 7 days of passes ≥ 10°. The values pass through the URL so the page stays shareable.

No JS? Fill the form by hand. The geolocation button needs JavaScript.